Location: Flint Hill Observatory
(31.1875°N, 100.5222°W)
Time: 07:40:22
(UTC-05:00)

Daily predictions for brighter satellites

Satellite Brightness Start Highest point End
(mag) Time Altitude Azimuth Time Altitude Azimuth Time Altitude Azimuth
Delta 2 Rocket 4.3 20:54:32 10° W 21:00:30 55° S 21:07:17 10° ESE
NOSS 3-2 (C) 4.4 21:01:20 10° SW 21:07:04 53° WNW 21:13:18 10° NNE
Lacrosse 5 rocket 2.2 21:06:40 10° SW 21:10:07 47° NW 21:13:35 10° NNE
Cosmos 1346 Rocket 3.7 21:08:45 10° NNE 21:12:19 31° ENE 21:15:54 10° SE
ORS 1 (USA 231) 4.4 21:10:09 10° SW 21:13:08 70° SSE 21:16:08 10° ENE
COSMOS 2455 2.9 21:07:52 10° SSW 21:13:52 88° ESE 21:19:55 10° NNE
CENTAUR R/B 2.5 21:08:34 10° S 21:14:08 53° ESE 21:20:22 10° NE
Molniya-1 4.1 21:13:14 10° SW 21:15:17 38° WNW 21:16:56 10° NNE
Envisat 3.3 21:20:02 10° SSE 21:24:54 50° ENE 21:29:48 10° N
TIMED 4.4 21:21:18 10° S 21:25:39 74° ESE 21:30:00 10° NNE
Cosmos 1939 Rocket 3.8 21:22:35 10° SE 21:26:17 32° ENE 21:29:59 10° N
Helios 1A 4.2 21:25:18 12° ESE 21:28:18 25° ENE 21:31:46 10° NNE
Cosmos 1933 3.8 21:24:38 10° NNW 21:28:37 63° W 21:32:34 10° S
Hubble Space Telescope 3.1 21:27:12 10° SW 21:29:14 13° SSW 21:31:16 10° S
Cosmos 1825 3.6 21:28:00 13° SE 21:30:06 20° E 21:32:54 10° NE
Cosmos 2082 Rocket 4.1 21:31:44 10° NW 21:36:29 28° WSW 21:41:14 10° SSW
Cosmos 1125 Rocket 3.5 21:35:35 10° S 21:40:44 60° ESE 21:45:52 10° NNE
USA 186 1.9 21:38:57 10° S 21:41:31 56° W 21:44:19 10° NNW
Meteor 2-3 Rocket 4.0 21:36:58 10° SSW 21:42:40 72° W 21:48:21 10° N
Cosmos 1892 4.4 21:48:51 10° SSW 21:52:24 35° W 21:55:57 10° NNW
Cosmos 1634 Rocket 4.0 21:46:24 10° N 21:52:40 67° E 21:58:31 12° SSE
Cosmos 1943 Rocket 2.1 21:47:57 10° SSW 21:53:33 79° ESE 21:59:07 10° NNE
Cosmos 1782 3.6 21:50:06 10° NNE 21:53:41 31° E 21:54:51 26° ESE
FUSE 4.5 21:56:14 10° WSW 22:01:13 41° S 22:03:30 27° SE
SAR-Lupe-4 4.3 22:01:44 31° E 22:02:23 34° ENE 22:05:40 10° N
Resurs 01 Rocket 3.4 21:58:34 10° SSW 22:02:27 30° W 22:06:23 10° NW
Delta 7925 Rocket 3.7 22:00:30 10° WSW 22:04:56 42° S 22:06:54 29° ESE
Cosmos 158 Rocket 4.5 22:01:28 10° N 22:05:59 38° ENE 22:07:35 29° ESE
Okean 1-7 3.0 22:03:28 10° N 22:07:51 64° E 22:09:50 31° SSE
Cosmos 1340 3.7 22:05:56 10° NNE 22:09:15 28° ENE 22:09:15 28° ENE
Spot 1 4.3 22:07:08 26° SSE 22:09:50 72° ENE 22:14:49 10° N
Cosmos 1862 3.8 22:09:35 36° ESE 22:09:55 37° E 22:13:35 10° NNE
YAOGAN 6 2.6 22:11:47 33° S 22:13:20 87° WSW 22:17:02 10° NNW
CZ-4B DEB 2.4 22:13:28 66° ENE 22:13:28 66° ENE 22:16:20 10° N
NOAA 11 4.5 22:11:32 30° SE 22:13:53 49° ENE 22:19:08 10° N
Meteor 1-29 3.3 22:13:42 10° N 22:17:10 65° WNW 22:19:40 17° SSW
Cosmos 2344 3.5 22:11:11 10° SSW 22:18:58 85° ESE 22:27:01 10° NNE
Tiangong 2 1.3 22:16:14 10° WNW 22:19:25 59° SW 22:19:29 59° SSW
H-2A R/B 3.4 22:20:37 23° E 22:21:21 24° ENE 22:25:31 10° NNE
Cosmos 2369 Rocket 4.2 22:18:26 10° WSW 22:23:17 29° WNW 22:28:13 10° N
SAR-Lupe-1 4.1 22:23:53 59° E 22:23:56 59° ENE 22:27:27 10° N
Cosmos 2279 Rocket 3.9 22:17:44 10° N 22:23:59 70° E 22:27:05 31° SSE
ERS-1 Rocket 3.0 22:23:43 40° SE 22:25:21 61° ENE 22:30:19 10° N
Helios 1B rocket 3.7 22:23:11 10° N 22:27:01 40° WNW 22:30:51 10° SW
Shenzhou-11 Module 3.4 22:24:24 10° WNW 22:26:47 30° SW 22:26:47 30° SW
GPS 2-04 Rocket1 2.6 22:25:52 10° WNW 22:29:35 62° NNE 22:29:53 58° NE
Cosmos 1606 2.6 22:27:32 10° N 22:31:20 84° W 22:31:47 67° S
Cosmos 1733 Rocket 3.0 22:33:26 57° E 22:33:26 57° E 22:37:39 10° NNE
Cosmos 2084 4.0 22:31:04 10° NW 22:34:48 45° WSW 22:35:33 40° SSW
Lacrosse 4 Rocket 1.9 22:31:38 10° N 22:35:57 47° ENE 22:36:05 46° ENE
MetOp-B 4.1 22:35:11 47° SE 22:36:33 64° ENE 22:41:50 10° N
ATLAS CENTAUR R/B 3.3 22:41:19 17° NE 22:41:19 17° NE 22:42:22 10° NE
Cosmos 1833 4.4 22:34:46 10° N 22:40:25 54° ENE 22:41:28 47° ESE
Cosmos 1408 4.3 22:38:24 14° SW 22:41:02 32° W 22:44:24 10° NNW
USA 215 4.3 22:40:49 24° E 22:43:43 34° NE 22:49:28 10° NNW
ATLAS 5 CENTAUR R/B 2.5 22:38:15 10° NNW 22:44:26 68° ENE 22:46:13 48° ESE
Cosmos 2180 Rocket 4.4 22:39:28 10° N 22:45:52 87° E 22:48:17 41° S
Nimbus 7 Rocket 4.4 22:40:14 10° NNE 22:45:58 53° ESE 22:46:30 51° ESE
SPOT 5 3.2 22:45:34 52° E 22:46:07 55° ENE 22:51:18 10° N
Cosmos 1048 Rocket 4.0 22:41:25 10° NNW 22:46:43 81° WSW 22:47:53 55° S
Cosmos 1656 Rocket 3.6 22:43:28 16° SSW 22:47:55 81° WNW 22:53:27 10° NNE
ARGOS 3.0 22:51:39 63° SE 22:52:25 75° ENE 22:57:46 10° N
Meteor 2-20 4.4 22:54:06 57° SE 22:54:56 63° E 23:00:58 10° NNE
Mugunghwa Rocket 4.4 22:57:46 10° WSW 23:05:01 63° S 23:06:21 55° SE
SL-08 RB Rocket 3.9 23:11:08 70° NNW 23:11:08 70° NNW 23:15:18 10° NNW
Meteor 1-27 Rocket 3.9 23:07:29 10° NNW 23:13:06 64° W 23:13:57 56° SW
Cosmos 2026 Rocket 4.5 23:15:04 43° ENE 23:15:04 43° ENE 23:20:01 10° NNE
Cosmos 2251 Rocket 4.3 23:10:56 10° N 23:14:57 40° NE 23:14:57 40° NE
Cosmos 1674 Rocket 4.5 23:12:06 10° N 23:15:02 43° N 23:15:02 43° N
SPOT 1/Viking Rocket 3.6 23:20:11 73° N 23:20:11 73° N 23:24:54 10° NNW
H-2A R/B 4.5 23:27:42 14° NNE 23:27:42 14° NNE 23:28:29 10° NNE
DMSP B5D2-2 4.3 23:20:05 10° NNE 23:24:33 66° N 23:24:33 66° N
Cosmos 2227 Rocket 4.1 23:34:14 10° NNE 23:37:06 18° NE 23:37:06 18° NE
Milstar 3 3.0 23:30:23 10° W 23:41:02 74° S 23:41:17 73° SSE
Cosmos 1092 Rocket 4.4 23:41:05 50° WSW 23:41:56 54° W 23:47:56 10° N
Cosmos 2219 3.8 23:41:30 10° NNW 23:45:59 53° N 23:45:59 53° N
